User: anonymous   Login
Location: Chenango Forks
(42.2242°N, 75.8278°W)
Time: 17:36:19
(UTC-05:00)
Language:

Coronas F rocket - Orbit

View from above orbital plane
View from above orbital plane
View from above satellite
View from above satellite

Ground track
Ground track

The orbit data is extracted from the following two-line orbital elements,

1 26874U 01032B   15030.90104803  .00018158  00000-0  22842-3 0  9137
2 26874 082.4695 103.6559 0011473 294.0112 065.9942 15.59428325756699
Epoch (UTC): 30 January 2015 21:37:30
Eccentricity: 0.0011473
inclination: 82.4695°
perigee height: 381 km
apogee height: 397 km
right ascension of ascending node: 103.6559°
argument of perigee: 294.0112°
revolutions per day: 15.59428325
mean anomaly at epoch: 65.9942°
orbit number at epoch: 75669

The dashed part of the orbit path shows where the satellite is in the earth's shadow,  

DLR